Weather History for KRIC - November, 2012

Change the Weather History Date:

Friday, November 2, 2012

  Actual Average Record
Temperature  
Mean Temperature 48 °F 55 °F  
Max Temperature 59 °F 66 °F 84 °F (1950)
Min Temperature 36 °F 43 °F 23 °F (1930)
Degree Days  
Heating Degree Days 17 11  
Month to date heating degree days 31 21  
Since 1 July heating degree days 233 254  
Cooling Degree Days 0 0  
Month to date cooling degree days 0 0  
Year to date cooling degree days 1744 1543  
Moisture  
Dew Point 30 °F    
Average Humidity 53    
Maximum Humidity 76    
Minimum Humidity 30    
Precipitation  
Precipitation 0.00 in 0.11 in 1.66 in (1956)
Month to date precipitation T 0.22  
Year to date precipitation 33.42 37.32  
Snow  
Snow 0.00 in 0.00 in 0.00 in (2002)
Month to date snowfall 0.0 0.0  
Since 1 July snowfall 0.0 0.0  
Snow Depth 0.00 in    
Sea Level Pressure  
Sea Level Pressure 29.85 in    
Wind  
Wind Speed 8 mph (West)    
Max Wind Speed 22 mph    
Max Gust Speed 30 mph    
Visibility 10 miles    
Events      
T = Trace of Precipitation, MM = Missing Value Source: NWS Daily Summary

Daily Weather History Graph

Daily Weather History Graph

Search for Another Location

Airport or City:

Trip Planner

Search our weather history database for the weather conditions in past years. The results will help you decide how hot, cold, wet, or windy it might be!

Date:

Astronomy

Nov. 02, 2012 Rise Set
Actual Time 7:35 AM EDT 6:09 PM EDT
Civil Twilight 7:08 AM EDT 6:36 PM EDT
Nautical Twilight 6:37 AM EDT 7:07 PM EDT
Astronomical Twilight 6:07 AM EDT 7:38 PM EDT
Moon 8:57 PM EDT (11/2) 10:52 AM EDT (11/2)
Length of Visible Light 11h 28m
Length of Day
10h 33m
Waning Gibbous, 87% of the Moon is Illuminated
Nov 2
Waning Gibbous
Nov 6
Last Quarter
Nov 13
New
Nov 20
First Quarter
Nov 28
Full

Hourly Weather History & Observations

Time (EDT) Temp. Windchill Dew Point Humidity Pressure Visibility Wind Dir Wind Speed Gust Speed Precip Events Conditions
12:54 AM 46.9 °F - 33.1 °F 59% 29.81 in 10.0 mi West 5.8 mph - N/A   Partly Cloudy
1:54 AM 45.0 °F 41.2 °F 32.0 °F 60% 29.81 in 10.0 mi West 6.9 mph - N/A   Partly Cloudy
2:54 AM 44.1 °F 39.5 °F 33.1 °F 65% 29.81 in 10.0 mi WSW 8.1 mph - N/A   Scattered Clouds
3:54 AM 44.1 °F 40.1 °F 33.1 °F 65% 29.81 in 10.0 mi WSW 6.9 mph - N/A   Mostly Cloudy
4:54 AM 42.1 °F 37.1 °F 33.1 °F 70% 29.81 in 10.0 mi WSW 8.1 mph - N/A   Mostly Cloudy
5:54 AM 41.0 °F 35.8 °F 32.0 °F 70% 29.82 in 10.0 mi WSW 8.1 mph - N/A   Partly Cloudy
6:54 AM 41.0 °F 35.8 °F 30.9 °F 67% 29.82 in 10.0 mi West 8.1 mph - N/A   Partly Cloudy
7:54 AM 42.1 °F 36.6 °F 30.9 °F 65% 29.83 in 10.0 mi WSW 9.2 mph - N/A   Mostly Cloudy
8:54 AM 44.1 °F 39.0 °F 30.9 °F 60% 29.84 in 10.0 mi WSW 9.2 mph - N/A   Scattered Clouds
9:54 AM 48.9 °F - 30.0 °F 48% 29.84 in 10.0 mi West 13.8 mph 18.4 mph N/A   Mostly Cloudy
10:54 AM 51.1 °F - 28.9 °F 43% 29.83 in 10.0 mi West 10.4 mph - N/A   Overcast
11:54 AM 54.0 °F - 30.0 °F 40% 29.83 in 10.0 mi West 16.1 mph 26.5 mph N/A   Mostly Cloudy
12:54 PM 57.0 °F - 27.0 °F 32% 29.81 in 10.0 mi West 18.4 mph 26.5 mph N/A   Mostly Cloudy
1:54 PM 57.0 °F - 27.0 °F 32% 29.80 in 10.0 mi WNW 13.8 mph 23.0 mph N/A   Mostly Cloudy
2:54 PM 57.0 °F - 28.0 °F 33% 29.81 in 10.0 mi West 15.0 mph 25.3 mph N/A   Mostly Cloudy
3:54 PM 57.0 °F - 27.0 °F 32% 29.81 in 10.0 mi WNW 13.8 mph 24.2 mph N/A   Scattered Clouds
4:54 PM 57.0 °F - 27.0 °F 32% 29.83 in 10.0 mi West 8.1 mph - N/A   Partly Cloudy
5:54 PM 54.0 °F - 26.1 °F 34% 29.86 in 10.0 mi WNW 10.4 mph - N/A   Partly Cloudy
6:54 PM 50.0 °F - 27.0 °F 41% 29.88 in 10.0 mi NNW 3.5 mph - N/A   Partly Cloudy
7:54 PM 46.0 °F 43.1 °F 28.9 °F 51% 29.91 in 10.0 mi North 5.8 mph - N/A   Clear
8:54 PM 45.0 °F 43.5 °F 30.9 °F 58% 29.93 in 10.0 mi North 3.5 mph - N/A   Clear
9:54 PM 42.1 °F 39.2 °F 32.0 °F 67% 29.95 in 10.0 mi North 4.6 mph - N/A   Clear
10:54 PM 39.0 °F - 32.0 °F 76% 29.96 in 10.0 mi Calm Calm - N/A   Clear
11:54 PM 37.9 °F - 30.9 °F 76% 29.97 in 10.0 mi Calm Calm - N/A   Clear